Location: Galuzintsy
(49.1701°N, 27.5489°E)
Time: 15:38:21
(UTC+00:00)

Daily predictions for brighter satellites

Satellite Brightness Start Highest point End
(mag) Time Altitude Azimuth Time Altitude Azimuth Time Altitude Azimuth
Meteor 1-20 Rocket 4.2 18:11:30 10° N 18:17:08 84° ENE 18:22:39 10° SSE
Sich 1 3.2 18:16:50 10° NNW 18:21:12 82° W 18:25:34 10° S
SJ 16-02 3.1 18:20:12 10° SE 18:22:47 15° E 18:25:24 10° ENE
S3M 4.1 18:18:52 10° S 18:25:15 87° E 18:31:37 10° N
Cosmos 1242 Rocket 2.4 18:22:12 10° S 18:25:44 69° E 18:29:15 10° NNE
ERS-2 3.6 18:23:38 10° N 18:27:05 41° WNW 18:30:31 10° SW
USA 245 4.1 18:25:46 10° ESE 18:27:08 15° ENE 18:28:33 10° NNE
Cosmos 1437 3.6 18:26:09 10° SSE 18:28:34 25° E 18:30:59 10° NE
Cosmos 2278 Rocket 3.1 18:23:58 10° SSE 18:28:43 28° ESE 18:33:28 10° NE
Cosmos 1844 Rocket 3.3 18:24:50 10° SW 18:30:21 62° WNW 18:35:55 10° NNE
CZ-2C R/B 4.4 18:28:26 10° NNE 18:32:32 34° E 18:36:40 10° SSE
Cosmos 2315 Rocket 4.2 18:26:52 10° SSE 18:33:04 57° E 18:39:18 10° NNE
Cosmos 1503 Rocket 4.0 18:29:15 10° SSW 18:34:25 87° ESE 18:39:41 10° NNE
Cosmos 1933 3.4 18:31:34 10° SSW 18:35:36 82° W 18:39:39 10° N
Cosmos 1602 3.7 18:33:29 10° N 18:37:22 88° E 18:41:16 10° S
Intercosmos 24 3.9 18:34:23 10° SSW 18:37:59 73° WNW 18:41:42 10° N
Cosmos 2084 3.5 18:34:11 10° SSW 18:38:12 54° SE 18:42:21 10° NE
Cosmos 1151 Rocket 3.1 18:34:01 10° S 18:38:18 60° E 18:42:38 10° NNE
Ariane Rocket 3.7 18:35:59 10° S 18:40:56 55° W 18:45:57 10° NNW
CREW DRAGON DEMO-1 DEB 2.4 18:39:52 10° WNW 18:42:31 89° SSW 18:44:46 13° ESE
ATLAS 5 CENTAUR R/B 3.1 18:39:28 10° NW 18:44:50 47° WSW 18:51:06 10° SSE
Cosmos 1782 2.8 18:42:04 10° S 18:46:03 72° E 18:50:02 10° NNE
NOSS 3-4 (A) 4.2 18:39:19 10° NW 18:46:03 59° NE 18:53:18 11° ESE
NOSS 3-4 (C) 4.2 18:39:26 10° NW 18:46:09 59° NE 18:53:24 11° ESE
USA 305 2.9 18:48:17 10° WNW 18:52:34 87° NNE 18:56:18 13° ESE
Resurs 01 Rocket 1.9 18:48:57 10° S 18:53:23 70° WSW 18:57:50 10° NNW
NOSS 3-3 (A) 3.9 18:50:33 10° SSW 18:56:19 76° SE 19:02:58 10° NE
NOSS 3-3 (C) 3.9 18:50:40 10° SSW 18:56:26 75° SE 19:03:04 10° NE
IGS 5A 3.7 18:55:15 10° S 18:59:22 67° WSW 19:03:31 10° NNW
ATLAS 2AS CENTAUR R/B 3.5 18:52:09 10° NW 18:59:26 48° NE 19:06:06 10° ESE
Cosmos 1812 3.0 18:57:27 11° SSE 19:01:01 47° E 19:04:46 10° NNE
Terra 3.0 18:58:26 13° ESE 19:01:52 29° ENE 19:05:57 10° N
OBJECT-B 3.8 19:00:38 10° WSW 19:02:15 13° W 19:03:53 10° WNW
Cosmos 1833 Rocket 2.7 18:58:45 10° NNW 19:04:27 90° ENE 19:09:14 15° SSE
Cosmos 1666 3.0 19:02:19 10° N 19:05:58 47° ENE 19:08:25 18° SE
X-37B 2.8 19:05:42 10° WSW 19:07:36 15° SSW 19:08:48 13° S
USA 215 4.3 19:01:47 10° ENE 19:07:56 45° N 19:14:04 10° WNW
Meteor 1-5 Rocket 4.1 19:05:16 10° N 19:10:41 77° ENE 19:15:08 15° SSE
USA 306 2.9 19:07:41 10° WNW 19:11:58 77° SSW 19:14:57 19° SE
SPOT 5 3.5 19:08:25 16° SE 19:12:17 50° ENE 19:17:24 10° N
Iridium 4 Rocket 4.1 19:07:41 14° SSE 19:12:34 52° E 19:18:18 10° NNE
Cosmos 1515 Rocket 3.6 19:08:48 10° S 19:13:07 63° E 19:17:29 10° NNE
SPOT 1/Viking Rocket 3.6 19:11:39 12° SSE 19:16:27 81° WSW 19:21:41 10° NNW
Cosmos 1869 Rocket 4.5 19:12:49 10° N 19:16:46 33° ENE 19:19:10 19° SE
Cosmos 1633 Rocket 4.1 19:13:54 10° NNW 19:18:05 43° W 19:22:15 10° SSW
ERBS 4.3 19:15:20 10° NW 19:18:08 25° NNE 19:20:57 10° ENE
Cosmos 158 Rocket 4.0 19:16:08 10° NNW 19:21:00 64° ENE 19:24:18 20° SE
Meteor 1-10 Rocket 4.4 19:17:08 13° S 19:21:58 54° E 19:27:30 10° NNE
CZ-4C R/B 3.3 19:17:29 10° NW 19:24:36 63° SW 19:31:15 17° SSE
Cosmos 1536 3.7 19:24:49 10° N 19:28:36 36° ENE 19:30:27 23° ESE
Cosmos 1328 Rocket 4.3 19:24:50 10° SSW 19:29:10 53° WNW 19:33:30 10° N
Cosmos 1470 Rocket 4.2 19:27:00 10° NNW 19:31:24 54° W 19:35:18 13° S
Cosmos 1544 4.2 19:32:21 10° N 19:35:32 29° ENE 19:36:45 23° ESE
Cosmos 1500 4.4 19:32:29 10° NNW 19:35:59 37° W 19:39:09 12° SSW
USA 307 3.1 19:34:45 10° WNW 19:38:57 56° SW 19:40:59 28° SSE
CARTOSAT-1 3.7 19:36:10 20° S 19:39:04 74° WSW 19:43:24 10° NNW
Cosmos 1538 Rocket 4.4 19:34:42 10° NNW 19:39:58 59° WSW 19:43:46 19° S
ARIANE 5 R/B 2.8 19:37:54 19° S 19:40:53 66° WSW 19:45:13 10° NNW
JB-3 4.2 19:37:35 10° NNE 19:41:30 84° ESE 19:44:08 19° S
Cosmos 1933 Rocket 4.0 19:41:18 10° NNW 19:45:34 58° W 19:48:33 19° S
Cosmos 2082 Rocket 2.2 19:40:47 10° NNW 19:46:27 83° WSW 19:49:53 25° SSE
CZ-4B DEB 4.4 19:46:01 38° SE 19:46:59 58° ENE 19:50:10 10° N
H-2A R/B 3.9 19:43:04 10° NNE 19:47:06 44° E 19:48:40 30° SSE
Cosmos 2154 Rocket 4.0 19:41:43 10° N 19:48:03 72° ENE 19:52:06 24° SSE
Spot 2 Rocket 3.9 19:44:40 17° S 19:48:29 57° W 19:53:27 10° NNW
USA 308 3.4 19:48:27 10° WNW 19:52:34 46° SW 19:54:09 31° SSE
BREEZE-M R/B 1.8 19:50:29 10° W 19:52:54 77° N 19:54:01 30° E
ERS-1 Rocket 3.0 19:50:09 23° S 19:53:20 76° WSW 19:58:24 10° NNW
Cosmos 2184 Rocket 4.1 19:49:05 10° NNW 19:55:18 74° W 19:59:48 19° S
COSMOS 2406 4.2 19:50:26 10° NW 19:55:40 39° WSW 19:59:35 17° SSW
Cosmos 1680 Rocket 3.6 19:50:49 10° NNW 19:56:10 71° ENE 19:58:57 28° SE
Cosmos 2074 Rocket 4.3 19:52:26 10° NNW 19:58:42 68° W 20:03:24 19° S
SJ 16-02 1.7 19:56:26 10° SSW 20:00:50 66° WNW 20:05:16 10° NNE
SL-24 R/B - RUBIN 2 4.1 19:55:59 10° NW 20:01:36 72° NE 20:04:12 29° SE
Nadezhda 1 Rocket 4.0 19:59:25 20° S 20:03:54 78° E 20:10:09 10° NNE
Cosmos 1733 Rocket 3.9 20:01:39 10° N 20:05:41 36° ENE 20:07:02 28° ESE
SL-24 DEB 4.1 20:03:59 31° S 20:06:11 84° E 20:10:49 10° N
Cosmos 1271 Rocket 3.4 20:05:27 17° SSW 20:08:21 55° WNW 20:12:18 10° N
BREEZE-M DEB (TANK) 3.8 20:01:00 10° W 20:09:20 59° NNW 20:12:05 10° ENE
Cosmos 2278 Rocket 2.9 20:06:56 10° SW 20:12:29 55° NW 20:18:04 10° NNE
Meteor 1-27 Rocket 3.8 20:09:40 21° S 20:13:40 87° E 20:19:38 10° NNE
Cosmos 1943 Rocket 2.8 20:12:58 31° SE 20:14:33 37° ESE 20:19:39 10° NE
Cosmos 1818 3.8 20:14:01 10° NW 20:19:31 68° NE 20:22:17 29° ESE
Cosmos 2369 Rocket 3.4 20:19:53 22° ESE 20:20:29 23° ESE 20:24:48 10° NE
Cosmos 2084 Rocket 3.4 20:24:37 10° NW 20:28:54 80° NE 20:30:17 43° SE
Cosmos 2181 Rocket 4.4 20:27:08 32° SE 20:29:35 48° E 20:35:25 10° NNE
Cosmos 967 Rocket 4.5 20:26:48 26° S 20:30:19 58° ESE 20:36:29 10° NE
Gbstr 26 Del rocket 4.1 20:24:15 10° WNW 20:31:51 87° SSW 20:36:06 23° ESE
USA 305 4.3 20:28:42 10° W 20:32:08 24° SW 20:32:22 24° SW
Cosmos 2228 Rocket 3.9 20:29:53 20° SW 20:32:43 47° WNW 20:37:05 10° N
Cosmos 1898 Rocket 3.4 20:30:18 30° SSW 20:32:58 77° ESE 20:38:19 10° NNE
Cosmos 2366 rocket 4.3 20:27:59 10° N 20:34:02 55° ENE 20:36:47 32° SE
NOSS 3-4 (C) 4.5 20:30:28 10° NW 20:37:04 44° WSW 20:40:50 26° S
Cosmos 1900 4.3 20:35:52 34° SSW 20:38:03 67° ESE 20:43:04 10° NE
Terra 2.7 20:37:19 26° SSW 20:39:28 40° W 20:43:59 10° NNW
Cosmos 990 Rocket 4.1 20:39:51 22° SSW 20:43:14 75° WNW 20:48:32 10° NNE
Cosmos 2341 Rocket 4.0 20:38:26 10° N 20:44:53 85° W 20:47:53 34° S
Cosmos 372 Rocket 4.4 20:45:52 39° SE 20:46:43 43° ESE 20:51:31 10° NE
Cosmos 44 3.7 20:42:44 10° NW 20:48:05 58° WSW 20:49:39 41° S
Cosmos 1340 Rocket 3.5 20:44:22 10° NNW 20:48:18 46° W 20:49:18 37° SW
Okean 1 3.2 20:48:17 62° SSE 20:48:47 73° E 20:52:47 10° NNE
Cosmos 489 Rocket 4.5 20:42:39 10° NNW 20:48:56 80° ENE 20:51:38 36° SSE
USA 215 3.9 20:44:01 10° E 20:50:20 55° NNE 20:56:41 10° WNW
ATLAS 2AS CENTAUR R/B 3.0 20:43:26 10° NW 20:50:36 56° WSW 20:53:31 34° S
Cosmos 1862 Rocket 3.5 20:50:26 55° SSE 20:51:09 66° E 20:55:27 10° NNE
ERBS 2.3 20:51:19 10° NW 20:54:27 76° NNW 20:54:27 76° NNW
Meteor 2-4 Rocket 4.3 20:53:50 35° SE 20:55:22 42° E 21:00:37 10° NNE
Cosmos 2218 Rocket 4.0 20:51:33 10° N 20:57:53 82° E 21:00:30 38° SSE
Cosmos 1743 3.5 20:56:03 10° NNW 20:59:41 40° W 21:00:22 37° WSW
Spot 4 3.8 21:02:54 50° SSE 21:04:12 84° ENE 21:09:06 10° NNW
Okean 1-7 3.9 21:06:40 33° E 21:06:50 33° E 21:10:42 10° NNE
Cosmos 2297 3.9 21:08:50 23° SW 21:12:29 68° WNW 21:18:10 10° NNE
DNEPR-1 R/B 4.0 21:09:49 26° SW 21:13:08 89° NW 21:18:03 10° NE
Cosmos 1867 4.1 21:13:59 38° SE 21:14:15 38° ESE 21:19:16 10° NE
Cosmos 2344 4.5 21:08:09 10° NW 21:16:55 67° NE 21:29:03 10° ESE
SL-8 Rocket 4.2 21:12:58 10° NNW 21:19:13 62° W 21:21:48 36° SSW
Cosmos 1975 2.7 21:16:37 10° NNW 21:20:36 72° W 21:20:51 69° SW
RESURS DK-1 2.6 21:20:49 10° NNW 21:24:57 61° ENE 21:25:36 53° E
ALOS 2 2.5 21:24:31 62° SE 21:25:11 77° ENE 21:29:36 10° N
Cosmos 1238 Rocket 4.3 21:20:37 10° NNW 21:26:30 48° W 21:28:28 34° SW
Cosmos 2082 Rocket 4.3 21:26:47 10° WNW 21:29:38 14° W 21:31:43 12° WSW
Meteor 1-18 Rocket 4.3 21:28:24 39° SSW 21:30:32 72° WNW 21:36:08 10° N
SAR-Lupe-2 4.1 21:30:15 10° NNE 21:33:21 50° ENE 21:33:21 50° ENE
Cosmos 1937 Rocket 4.2 21:31:11 24° WSW 21:33:59 48° WNW 21:39:02 10° NNE
Cosmos 1461 3.2 21:35:29 46° SW 21:36:50 80° NW 21:41:29 10° NE
Gblst 52 Del rocket 4.4 21:30:23 10° WNW 21:37:12 66° SSW 21:39:20 41° SE
COBE Rocket 3.9 21:37:09 52° SSE 21:38:23 81° ENE 21:43:35 10° N
Cosmos 1378 4.1 21:38:51 37° ENE 21:38:51 37° ENE 21:41:56 10° NNE
SL-08 R/B 4.4 21:33:07 10° N 21:39:21 87° W 21:41:33 44° S
SJ 16-02 4.4 21:38:54 10° WNW 21:40:20 11° NW 21:41:47 10° NNW
Sich 1 Rocket 4.3 21:43:16 10° N 21:47:39 43° ENE 21:48:33 38° ESE
Cosmos 1048 Rocket 3.9 21:42:25 10° NNW 21:47:46 81° WSW 21:48:57 55° S
COSMOS 2487 4.5 21:45:36 10° N 21:48:13 20° ENE 21:48:53 19° ENE
Cosmos 2242 Rocket 3.5 21:53:34 63° SW 21:54:10 74° W 21:58:39 10° N
Nimbus 7 Rocket 4.3 21:50:38 10° NNE 21:56:32 76° ESE 21:58:20 47° S
Cosmos 1943 Rocket 3.1 21:54:26 18° WSW 21:58:14 44° NW 22:03:34 10° NNE
Cosmos 1908 Rocket 4.2 21:55:05 10° NNW 21:59:21 44° W 21:59:50 42° WSW
Cosmos 1300 Rocket 4.1 21:55:16 10° N 21:59:34 49° ENE 22:00:17 44° ESE
Thor Agena Rocket 3.7 21:55:05 10° NNE 22:00:20 65° ESE 22:01:27 51° SSE
ATLAS CENTAUR R/B 1.8 22:04:06 44° ENE 22:04:06 44° ENE 22:07:00 10° NE
Cosmos 2298 Rocket 3.9 22:02:18 54° SSW 22:03:35 87° ESE 22:08:55 10° NNE
Cosmos 2369 Rocket 2.4 22:01:38 35° SW 22:04:00 67° WNW 22:09:40 10° NNE
Okean 2 Rocket 3.7 22:01:49 10° N 22:06:04 45° ENE 22:06:53 40° ESE
Meteor 1-15 Rocket 4.5 22:00:30 10° N 22:06:10 65° ENE 22:08:09 40° SE
Cosmos 1733 3.7 22:08:56 10° N 22:12:38 50° ENE 22:12:44 49° E
Cosmos 1656 Rocket 3.6 22:14:19 45° SW 22:16:02 80° WNW 22:21:37 10° NNE
SL-27 R/B 3.5 22:13:57 10° NNW 22:16:15 36° WNW 22:16:15 36° WNW
Cosmos 1934 Rocket 3.9 22:12:30 10° N 22:18:41 82° E 22:20:47 44° SSE
EO 1 Del DPAF 3.8 22:15:50 10° NNE 22:19:12 44° E 22:19:12 44° E
Cosmos 1821 Rocket 4.3 22:13:27 10° NNW 22:19:44 60° W 22:21:51 40° SSW
Okean 3 3.3 22:21:47 71° SW 22:22:08 76° W 22:26:23 10° N
NOSS 2-1 (E) 4.2 22:19:26 10° NW 22:24:15 79° NE 22:28:18 24° SE
SeaSat 1 2.6 22:19:45 10° NE 22:24:38 56° ESE 22:25:21 50° SSE
CZ-2D R/B 4.3 22:22:30 10° NE 22:25:33 15° E 22:27:59 12° ESE
Cosmos 1805 3.1 22:24:54 10° N 22:28:47 86° WNW 22:28:47 86° WNW
Cosmos 1782 Rocket 4.4 22:27:10 10° NNW 22:31:16 37° W 22:31:35 36° WSW
Cosmos 44 Rocket 3.3 22:26:19 10° NW 22:31:33 77° SW 22:32:45 53° SSE
ISS -3.2 22:32:07 57° NNE 22:32:07 57° NNE 22:35:12 10° ENE
Helios 1A 3.9 22:30:58 33° ESE 22:32:08 41° ENE 22:36:03 10° N
Cosmos 2150 Rocket 4.3 22:30:50 39° SW 22:32:38 61° WNW 22:37:53 10° NNE
USA 215 3.1 22:28:29 20° SE 22:33:13 77° SW 22:39:47 10° WNW
Cosmos 1066 Rocket 4.2 22:33:49 47° SSW 22:35:34 81° WNW 22:41:15 10° N
Resurs 1-4 Rocket 4.0 22:32:50 10° NE 22:36:27 18° E 22:38:43 14° ESE
Cosmos 1766 3.1 22:37:09 10° N 22:41:09 89° E 22:41:16 84° SSE
Cosmos 724 4.4 22:40:06 44° SSW 22:42:08 74° ESE 22:48:23 10° NE
Okean 1-7 4.5 22:43:30 24° W 22:44:27 26° WNW 22:48:05 10° NNW
Cosmos 1535 Rocket 4.5 22:39:31 10° NNW 22:45:46 72° W 22:47:59 42° SSW
Cosmos 1607 4.4 22:43:51 25° WSW 22:47:43 62° NW 22:54:11 10° NE
SL-24 R/B 4.2 22:47:29 51° SE 22:48:33 75° ENE 22:52:49 10° N
SL-16 R/B 3.7 22:44:00 11° SE 22:49:30 39° ENE 22:55:14 10° N
Cosmos 2227 Rocket 3.7 22:45:30 10° NNW 22:50:39 34° NE 22:55:47 10° ESE
Cosmos 2221 Rocket 3.6 22:49:59 61° SSW 22:50:44 82° W 22:55:20 10° N
Cosmos 1378 Rocket 4.0 22:50:29 43° SE 22:51:13 48° E 22:55:23 10° NNE
USA 281 3.6 22:46:01 16° SE 22:51:18 62° ENE 22:57:47 10° NNW
Cosmos 1125 Rocket 4.0 22:50:20 35° WSW 22:52:11 53° WNW 22:57:19 10° NNE
Cosmos 2297 Rocket 3.2 22:48:18 10° NNW 22:53:44 44° NE 22:59:08 10° SE
Meteor 1-23 Rocket 4.3 22:54:49 43° SSW 22:56:47 75° WNW 23:02:38 10° N
Cosmos 1867 4.3 22:54:35 23° WSW 22:57:46 48° NW 23:03:05 10° NNE
Cosmos 1470 3.3 22:58:04 10° N 23:01:56 54° ENE 23:02:43 45° ESE
Lacrosse 5 2.0 23:03:14 49° S 23:04:02 54° SE 23:09:00 10° ENE
COSMOS 2455 3.0 22:58:07 10° NNW 23:04:09 72° NE 23:09:14 15° SE
Cosmos 1758 4.2 23:05:25 10° N 23:09:21 44° ENE 23:10:47 31° SE
Okean 1 Rocket 3.1 23:05:41 10° N 23:10:06 77° E 23:11:11 50° SSE
NOSS 2-1 (C) 4.4 23:05:50 10° NW 23:10:40 52° SW 23:12:37 38° S
Cosmos 1400 Rocket 2.7 23:06:33 10° NNW 23:10:41 80° W 23:11:09 67° SSW
Cosmos 1315 Rocket 4.0 23:11:34 10° N 23:15:20 38° ENE 23:17:06 25° ESE
Okean 2 3.5 23:16:03 55° SSE 23:16:50 71° E 23:21:00 10° NNE
USA 81 4.3 23:13:09 10° NNW 23:18:19 54° W 23:19:49 41° SW
Cosmos 1842 3.1 23:18:08 68° SW 23:18:31 77° W 23:22:25 10° N
Cosmos 1674 Rocket 3.5 23:18:32 54° SSW 23:19:28 76° W 23:23:59 10° N
Cosmos 1726 2.1 23:15:47 10° N 23:19:30 74° E 23:19:59 62° SE
Cosmos 1459 Rocket 4.3 23:16:23 10° N 23:22:37 62° ENE 23:26:46 21° SSE
COSMOS 2487 3.8 23:20:05 10° NW 23:22:11 26° WNW 23:22:11 26° WNW
Cosmos 1605 Rocket 4.3 23:19:23 10° NNW 23:25:25 52° W 23:27:49 35° SSW
MOZ.5/SAFIR/RUBIN 5/SL-8 3.6 23:28:07 43° S 23:29:36 80° WSW 23:34:16 10° NNW
Timation 2 Rocket 4.1 23:27:50 10° NNW 23:33:50 72° ENE 23:39:51 10° SE
Cosmos 2219 3.4 23:30:32 10° NNW 23:36:16 74° ENE 23:41:43 11° SE
Cosmos 2173 Rocket 4.0 23:31:02 10° N 23:37:14 79° E 23:41:14 24° SSE
Cosmos 1626 4.5 23:37:49 12° SE 23:39:55 17° E 23:42:25 10° NE
Helios 1B rocket 3.0 23:36:17 10° NNE 23:40:19 49° E 23:41:45 33° SSE
Cosmos 2251 Rocket 3.5 23:36:24 10° NNW 23:41:41 85° ENE 23:45:09 22° SSE
ATLAS CENTAUR R/B 3.2 23:40:13 14° W 23:42:26 23° NW 23:45:34 10° NNE
USA 276 2.7 23:44:02 44° ESE 23:44:02 44° ESE 23:46:34 10° E
CZ-3B R/B 4.1 23:20:25 11° SW 23:45:13 73° SSE 23:50:35 10° ENE
Cosmos 2369 Rocket 4.5 23:45:27 10° WNW 23:49:10 18° NW 23:52:54 10° N
Cosmos 1455 Rocket 3.3 23:45:04 10° N 23:49:23 64° ENE 23:51:48 25° SSE
Cosmos 1707 2.6 23:50:46 51° SSW 23:51:39 77° WNW 23:55:30 10° N
